AFL1215 USCC-UWWW

Flight info

Callsign AFL1215
Flight time N/A
Altitude 38000
Route BEDOT L158 LANTO T759 NALUS
Aircraft B738/M-V/N

Departure

Time 2026-04-25 01:28
Airport Kurchatov Chelyabinsk International Airport (USCC)

Arrival

Time N/A
Airport Kurumoch International Airport (UWWW)
Time Latitude Longitude Altitude Speed Heading
2026-04-25 01:19 55.30021 61.50963 746 ft 0 kts 193°
2026-04-25 01:22 55.30019 61.50962 746 ft 1 kts 193°
2026-04-25 01:22 55.29999 61.50953 746 ft 5 kts 199°
2026-04-25 01:23 55.29978 61.50876 746 ft 9 kts 264°
2026-04-25 01:23 55.29992 61.50734 746 ft 13 kts 285°
2026-04-25 01:23 55.30018 61.50554 749 ft 16 kts 284°
2026-04-25 01:23 55.30046 61.50348 751 ft 19 kts 284°
2026-04-25 01:24 55.30077 61.50108 754 ft 17 kts 283°
2026-04-25 01:24 55.30178 61.50032 756 ft 19 kts
2026-04-25 01:24 55.30324 61.50091 756 ft 23 kts
2026-04-25 01:24 55.30440 61.49958 757 ft 24 kts 283°
2026-04-25 01:25 55.30476 61.49653 760 ft 27 kts 282°
2026-04-25 01:25 55.30519 61.49313 763 ft 29 kts 283°
2026-04-25 01:25 55.30573 61.48942 763 ft 33 kts 284°
2026-04-25 01:25 55.30631 61.48519 761 ft 37 kts 283°
2026-04-25 01:26 55.30707 61.48179 758 ft 24 kts 336°
2026-04-25 01:26 55.30864 61.48249 754 ft 19 kts 81°
2026-04-25 01:26 55.30840 61.48494 756 ft 22 kts 104°
2026-04-25 01:26 55.30759 61.49053 761 ft 90 kts 104°
2026-04-25 01:27 55.30545 61.50621 763 ft 170 kts 104°
2026-04-25 01:27 55.30258 61.52686 1122 ft 173 kts 105°
2026-04-25 01:27 55.29944 61.54827 1343 ft 195 kts 105°
2026-04-25 01:28 55.29829 61.59748 2968 ft 222 kts 70°
2026-04-25 01:28 55.30700 61.62057 3526 ft 242 kts 46°
2026-04-25 01:28 55.32111 61.63856 4155 ft 259 kts 25°
2026-04-25 01:28 55.33886 61.64596 4769 ft 272 kts 355°
2026-04-25 01:29 55.35677 61.63658 5548 ft 274 kts 324°
2026-04-25 01:29 55.37026 61.61422 6440 ft 271 kts 302°
2026-04-25 01:29 55.37802 61.58452 7284 ft 269 kts 277°
2026-04-25 01:29 55.37764 61.55246 8244 ft 263 kts 258°
2026-04-25 01:30 55.37382 61.52099 9105 ft 266 kts 254°
2026-04-25 01:30 55.36964 61.48966 10011 ft 267 kts 254°
2026-04-25 01:30 55.36566 61.45751 10624 ft 279 kts 255°
2026-04-25 01:30 55.36179 61.42345 11198 ft 292 kts 256°
2026-04-25 01:31 55.35792 61.38783 11747 ft 305 kts 256°
2026-04-25 01:31 55.35391 61.35063 12373 ft 316 kts 256°
2026-04-25 01:31 55.34980 61.31247 13217 ft 318 kts 255°
2026-04-25 01:31 55.34567 61.27447 14035 ft 321 kts 255°
2026-04-25 01:32 55.34166 61.23624 14876 ft 323 kts 256°
2026-04-25 01:32 55.33808 61.19733 15715 ft 324 kts 257°
2026-04-25 01:32 55.33478 61.15845 16505 ft 326 kts 256°
2026-04-25 01:32 55.33149 61.11908 17290 ft 327 kts 256°
2026-04-25 01:33 55.32818 61.07992 18124 ft 326 kts 256°
2026-04-25 01:33 55.32480 61.04076 18771 ft 330 kts 255°
2026-04-25 01:33 55.32132 61.00122 19446 ft 333 kts 255°
2026-04-25 01:33 55.31771 60.96072 20090 ft 336 kts 255°
2026-04-25 01:34 55.31414 60.92060 20757 ft 338 kts 255°
2026-04-25 01:34 55.31045 60.87953 21388 ft 341 kts 255°
2026-04-25 01:34 55.30678 60.83879 21938 ft 346 kts 254°
2026-04-25 01:34 55.30299 60.79683 22522 ft 349 kts 255°
2026-04-25 01:35 55.29917 60.75469 23137 ft 351 kts 254°
2026-04-25 01:35 55.29533 60.71239 23700 ft 354 kts 254°
2026-04-25 01:35 55.29146 60.66987 24229 ft 358 kts 253°
2026-04-25 01:35 55.28749 60.62671 24808 ft 360 kts 253°
2026-04-25 01:36 55.28352 60.58356 25281 ft 364 kts 253°
2026-04-25 01:36 55.27950 60.53994 25870 ft 365 kts 253°
2026-04-25 01:36 55.27537 60.49528 26398 ft 367 kts 253°
2026-04-25 01:36 55.27123 60.45085 26850 ft 371 kts 253°
2026-04-25 01:37 55.26708 60.40639 27417 ft 371 kts 253°
2026-04-25 01:37 55.26291 60.36184 27857 ft 375 kts 253°
2026-04-25 01:37 55.25866 60.31679 28341 ft 377 kts 252°
2026-04-25 01:37 55.25433 60.27116 28729 ft 381 kts 252°
2026-04-25 01:38 55.24998 60.22522 29287 ft 381 kts 252°
2026-04-25 01:38 55.24569 60.17994 29718 ft 384 kts 252°
2026-04-25 01:38 55.24124 60.13344 30177 ft 385 kts 252°
2026-04-25 01:38 55.23728 60.08732 30507 ft 392 kts 254°
2026-04-25 01:39 55.23434 60.04003 31026 ft 393 kts 256°
2026-04-25 01:39 55.23196 59.99231 31582 ft 390 kts 256°
2026-04-25 01:39 55.22980 59.94558 32036 ft 386 kts 256°
2026-04-25 01:39 55.22758 59.89895 32336 ft 386 kts 256°
2026-04-25 01:40 55.22522 59.85213 32564 ft 389 kts 257°
2026-04-25 01:40 55.22272 59.80496 32751 ft 392 kts 257°
2026-04-25 01:40 55.22015 59.75799 32983 ft 393 kts 256°
2026-04-25 01:40 55.21687 59.71061 33247 ft 391 kts 253°
2026-04-25 01:41 55.21165 59.66411 33470 ft 389 kts 250°
2026-04-25 01:41 55.20507 59.61874 33720 ft 387 kts 248°
2026-04-25 01:41 55.19774 59.57297 33940 ft 388 kts 248°
2026-04-25 01:41 55.19033 59.52819 34177 ft 388 kts 248°
2026-04-25 01:42 55.18274 59.48257 34420 ft 389 kts 248°
2026-04-25 01:42 55.17526 59.43744 34708 ft 389 kts 249°
2026-04-25 01:42 55.16784 59.39247 34916 ft 390 kts 248°
2026-04-25 01:42 55.16030 59.34654 35158 ft 391 kts 248°
2026-04-25 01:43 55.15279 59.30078 35429 ft 391 kts 248°
2026-04-25 01:43 55.14534 59.25534 35670 ft 391 kts 248°
2026-04-25 01:43 55.13788 59.20985 35892 ft 391 kts 248°
2026-04-25 01:43 55.13041 59.16448 36078 ft 393 kts 248°
2026-04-25 01:44 55.12288 59.11884 36242 ft 395 kts 249°
2026-04-25 01:44 55.11532 59.07309 36454 ft 396 kts 249°
2026-04-25 01:44 55.10764 59.02666 36663 ft 396 kts 249°
2026-04-25 01:44 55.09995 58.98037 36810 ft 398 kts 249°
2026-04-25 01:45 55.09225 58.93410 36993 ft 399 kts 249°
2026-04-25 01:45 55.08458 58.88810 37155 ft 400 kts 249°
2026-04-25 01:45 55.07676 58.84140 37283 ft 403 kts 249°
2026-04-25 01:45 55.06889 58.79453 37459 ft 403 kts 249°
2026-04-25 01:46 55.06107 58.74806 37604 ft 404 kts 249°
2026-04-25 01:46 55.05311 58.70093 37646 ft 406 kts 249°
2026-04-25 01:46 55.03712 58.60650 37659 ft 405 kts 249°
2026-04-25 01:47 55.02119 58.51288 37679 ft 407 kts 249°
2026-04-25 01:47 55.00506 58.41866 37695 ft 406 kts 249°
2026-04-25 01:48 54.98891 58.32474 37686 ft 406 kts 249°
2026-04-25 01:48 54.97266 58.23071 37688 ft 407 kts 248°
2026-04-25 01:49 54.95639 58.13702 37685 ft 408 kts 248°
2026-04-25 01:49 54.93989 58.04250 37685 ft 409 kts 249°
2026-04-25 01:50 54.92335 57.94828 37691 ft 410 kts 249°
2026-04-25 01:50 54.90664 57.85346 37688 ft 409 kts 249°
2026-04-25 01:51 54.88993 57.75918 37684 ft 412 kts 249°
2026-04-25 01:51 54.87301 57.66430 37667 ft 411 kts 249°
2026-04-25 01:52 54.85601 57.56941 37659 ft 413 kts 249°
2026-04-25 01:52 54.83896 57.47466 37660 ft 412 kts 249°
2026-04-25 01:53 54.82190 57.38036 37671 ft 413 kts 249°
2026-04-25 01:53 54.80463 57.28541 37680 ft 412 kts 248°
2026-04-25 01:54 54.78730 57.19072 37690 ft 412 kts 249°
2026-04-25 01:54 54.76997 57.09645 37697 ft 415 kts 249°
2026-04-25 01:55 54.75257 57.00240 37711 ft 414 kts 248°
2026-04-25 01:55 54.73489 56.90740 37710 ft 415 kts 249°
2026-04-25 01:56 54.71726 56.81308 37702 ft 415 kts 248°
2026-04-25 01:56 54.69950 56.71854 37703 ft 415 kts 248°
2026-04-25 01:57 54.67269 56.57690 37685 ft 416 kts 249°
2026-04-25 01:58 54.65471 56.48235 37686 ft 415 kts 248°
2026-04-25 01:58 54.63667 56.38801 37683 ft 416 kts 249°
2026-04-25 01:59 54.61848 56.29337 37675 ft 415 kts 248°
2026-04-25 01:59 54.60017 56.19853 37675 ft 416 kts 248°
2026-04-25 02:00 54.58194 56.10453 37673 ft 417 kts 248°
2026-04-25 02:00 54.56356 56.01020 37676 ft 418 kts 248°
2026-04-25 02:01 54.54492 55.91496 37683 ft 419 kts 248°
2026-04-25 02:01 54.52554 55.82111 37673 ft 418 kts 246°
2026-04-25 02:02 54.50431 55.72887 37671 ft 416 kts 245°
2026-04-25 02:02 54.48276 55.63696 37668 ft 417 kts 245°
2026-04-25 02:03 54.46117 55.54445 37652 ft 416 kts 246°
2026-04-25 02:03 54.43979 55.45255 37657 ft 417 kts 246°
2026-04-25 02:04 54.41819 55.35978 37648 ft 419 kts 246°
2026-04-25 02:04 54.39663 55.26743 37655 ft 418 kts 245°
2026-04-25 02:05 54.37504 55.17532 37636 ft 419 kts 245°
2026-04-25 02:05 54.35337 55.08321 37642 ft 418 kts 245°
2026-04-25 02:06 54.33160 54.99110 37636 ft 418 kts 245°
2026-04-25 02:06 54.30978 54.89923 37633 ft 419 kts 245°
2026-04-25 02:07 54.28789 54.80745 37645 ft 419 kts 245°
2026-04-25 02:07 54.26584 54.71535 37629 ft 419 kts 245°
2026-04-25 02:08 54.24376 54.62351 37633 ft 419 kts 245°
2026-04-25 02:08 54.22163 54.53184 37618 ft 421 kts 245°
2026-04-25 02:09 54.19939 54.44004 37598 ft 421 kts 245°
2026-04-25 02:09 54.17693 54.34767 37593 ft 421 kts 245°
2026-04-25 02:10 54.15443 54.25557 37594 ft 422 kts 245°
2026-04-25 02:10 54.13177 54.16338 37606 ft 423 kts 245°
2026-04-25 02:11 54.10914 54.07172 37618 ft 422 kts 245°
2026-04-25 02:11 54.08627 53.97953 37623 ft 423 kts 245°
2026-04-25 02:12 54.06346 53.88794 37618 ft 423 kts 245°
2026-04-25 02:12 54.04054 53.79627 37617 ft 423 kts 245°
2026-04-25 02:13 54.01759 53.70478 37344 ft 418 kts 245°
2026-04-25 02:13 54.00625 53.65971 36969 ft 414 kts 245°
2026-04-25 02:13 53.99500 53.61506 36467 ft 414 kts 245°
2026-04-25 02:13 53.98360 53.56992 35890 ft 415 kts 245°
2026-04-25 02:14 53.97229 53.52517 35282 ft 416 kts 245°
2026-04-25 02:14 53.96101 53.48054 34652 ft 417 kts 245°
2026-04-25 02:14 53.94947 53.43505 33968 ft 419 kts 245°
2026-04-25 02:14 53.93803 53.38999 33415 ft 417 kts 245°
2026-04-25 02:15 53.92677 53.34570 32936 ft 414 kts 244°
2026-04-25 02:15 53.91539 53.30103 32462 ft 412 kts 244°
2026-04-25 02:15 53.90407 53.25673 31948 ft 411 kts 244°
2026-04-25 02:15 53.89272 53.21240 31450 ft 410 kts 243°
2026-04-25 02:16 53.88156 53.16888 30930 ft 408 kts 243°
2026-04-25 02:16 53.87026 53.12490 30384 ft 407 kts 243°
2026-04-25 02:16 53.85905 53.08136 29858 ft 404 kts 243°
2026-04-25 02:16 53.84797 53.03842 29340 ft 402 kts 243°
2026-04-25 02:17 53.83715 52.99503 28832 ft 400 kts 244°
2026-04-25 02:17 53.82809 52.95121 28329 ft 399 kts 249°
2026-04-25 02:17 53.82127 52.90553 27808 ft 398 kts 253°
2026-04-25 02:17 53.81594 52.85979 27283 ft 396 kts 255°
2026-04-25 02:18 53.81136 52.81461 26764 ft 393 kts 255°
2026-04-25 02:18 53.80705 52.76957 26258 ft 390 kts 256°
2026-04-25 02:18 53.80273 52.72440 25750 ft 385 kts 255°
2026-04-25 02:18 53.79848 52.68062 25242 ft 381 kts 256°
2026-04-25 02:19 53.79409 52.63643 24703 ft 376 kts 255°
2026-04-25 02:19 53.78978 52.59392 24189 ft 371 kts 255°
2026-04-25 02:19 53.78541 52.55149 23687 ft 365 kts 255°
2026-04-25 02:19 53.78107 52.50980 23203 ft 359 kts 255°
2026-04-25 02:20 53.77677 52.46890 22726 ft 353 kts 256°
2026-04-25 02:20 53.77247 52.42825 22249 ft 347 kts 255°
2026-04-25 02:20 53.76827 52.38880 21810 ft 340 kts 256°
2026-04-25 02:20 53.76411 52.34991 21358 ft 335 kts 255°
2026-04-25 02:21 53.75996 52.31132 20915 ft 329 kts 255°
2026-04-25 02:21 53.75586 52.27322 20480 ft 324 kts 255°
2026-04-25 02:21 53.75191 52.23669 20052 ft 318 kts 256°
2026-04-25 02:21 53.74797 52.20030 19635 ft 313 kts 255°
2026-04-25 02:22 53.74412 52.16459 19223 ft 308 kts 255°
2026-04-25 02:22 53.74034 52.12957 18803 ft 302 kts 255°
2026-04-25 02:22 53.73658 52.09479 18394 ft 297 kts 255°
2026-04-25 02:22 53.73293 52.06124 18006 ft 291 kts 255°
2026-04-25 02:23 53.72931 52.02814 17627 ft 286 kts 255°
2026-04-25 02:23 53.72570 51.99523 17236 ft 281 kts 255°
2026-04-25 02:23 53.72221 51.96346 16869 ft 276 kts 255°
2026-04-25 02:23 53.71869 51.93164 16505 ft 275 kts 255°
2026-04-25 02:24 53.71507 51.89925 16117 ft 290 kts 256°
2026-04-25 02:24 53.71133 51.86587 15714 ft 293 kts 256°
2026-04-25 02:24 53.70763 51.83250 15316 ft 287 kts 256°
2026-04-25 02:24 53.70402 51.79980 14931 ft 282 kts 256°
2026-04-25 02:25 53.70046 51.76772 14556 ft 277 kts 256°
2026-04-25 02:25 53.69693 51.73617 14186 ft 272 kts 256°
2026-04-25 02:25 53.69344 51.70506 13826 ft 268 kts 256°
2026-04-25 02:25 53.69002 51.67459 13475 ft 264 kts 256°
2026-04-25 02:26 53.68653 51.64396 13122 ft 276 kts 256°
2026-04-25 02:26 53.68281 51.61150 12721 ft 283 kts 256°
2026-04-25 02:26 53.67917 51.57936 12342 ft 279 kts 256°
2026-04-25 02:26 53.67555 51.54728 11953 ft 275 kts 256°
2026-04-25 02:27 53.67232 51.51597 11593 ft 272 kts 260°
2026-04-25 02:27 53.67196 51.48401 11562 ft 276 kts 269°
2026-04-25 02:27 53.67381 51.45121 11546 ft 285 kts 272°
2026-04-25 02:27 53.67622 51.41839 11550 ft 285 kts 273°
2026-04-25 02:28 53.67858 51.38511 11553 ft 285 kts 272°
2026-04-25 02:28 53.68068 51.35226 11552 ft 284 kts 272°
2026-04-25 02:28 53.68265 51.31921 11549 ft 284 kts 271°
2026-04-25 02:28 53.68455 51.28595 11547 ft 283 kts 271°
2026-04-25 02:29 53.68641 51.25320 11541 ft 283 kts 271°
2026-04-25 02:29 53.68824 51.22047 11547 ft 282 kts 271°
2026-04-25 02:29 53.69010 51.18726 11547 ft 283 kts 271°
2026-04-25 02:29 53.69193 51.15440 11541 ft 284 kts 271°
2026-04-25 02:30 53.69378 51.12131 11540 ft 283 kts 271°
2026-04-25 02:30 53.69560 51.08833 11547 ft 284 kts 271°
2026-04-25 02:30 53.69741 51.05537 11541 ft 284 kts 271°
2026-04-25 02:30 53.69924 51.02194 11531 ft 285 kts 271°
2026-04-25 02:31 53.70105 50.98879 11538 ft 285 kts 271°
2026-04-25 02:31 53.70284 50.95591 11434 ft 282 kts 271°
2026-04-25 02:31 53.70460 50.92360 11125 ft 276 kts 271°
2026-04-25 02:31 53.70634 50.89135 10753 ft 273 kts 271°
2026-04-25 02:32 53.70804 50.85971 10381 ft 270 kts 271°
2026-04-25 02:32 53.70971 50.82866 10009 ft 267 kts 271°
2026-04-25 02:32 53.71140 50.79763 9753 ft 260 kts 271°
2026-04-25 02:32 53.71301 50.76804 9633 ft 249 kts 271°
2026-04-25 02:33 53.71453 50.73963 9432 ft 242 kts 271°
2026-04-25 02:33 53.71600 50.71131 9103 ft 240 kts 271°
2026-04-25 02:33 53.71743 50.68378 8811 ft 237 kts 270°
2026-04-25 02:33 53.71885 50.65628 8515 ft 234 kts 270°
2026-04-25 02:34 53.72026 50.62894 8216 ft 232 kts 270°
2026-04-25 02:34 53.72165 50.60200 7930 ft 231 kts 270°
2026-04-25 02:34 53.72304 50.57454 7642 ft 245 kts 271°
2026-04-25 02:34 53.72454 50.54549 7316 ft 246 kts 271°
2026-04-25 02:35 53.72604 50.51718 7021 ft 242 kts 271°
2026-04-25 02:35 53.72751 50.48918 6711 ft 239 kts 270°
2026-04-25 02:35 53.72894 50.46131 6415 ft 236 kts 270°
2026-04-25 02:35 53.73032 50.43395 6126 ft 233 kts 270°
2026-04-25 02:36 53.73164 50.40691 5843 ft 231 kts 270°
2026-04-25 02:36 53.73294 50.38026 5554 ft 228 kts 270°
2026-04-25 02:36 53.73423 50.35452 5281 ft 226 kts 270°